TimePST,TemperatureF,Dew PointF,Humidity,Sea Level PressureIn,VisibilityMPH,Wind Direction,Wind SpeedMPH,Gust SpeedMPH,PrecipitationIn,Events,Conditions,WindDirDegrees,DateUTC
12:55 AM,35.8,35.6,99,29.86,10.0,South,9.2,-,N/A,,Overcast,170,2011-11-24 08:55:00
1:40 AM,39.2,37.4,93,29.86,10.0,South,11.5,-,N/A,Rain,Light Rain,170,2011-11-24 09:40:00
1:50 AM,39.2,37.4,93,29.86,10.0,South,9.2,-,N/A,,Overcast,170,2011-11-24 09:50:00
1:55 AM,38.3,38.1,99,29.86,10.0,South,8.1,-,0.00,,Overcast,170,2011-11-24 09:55:00
2:55 AM,35.6,35.4,99,29.85,10.0,SSE,5.8,-,N/A,,Mostly Cloudy,160,2011-11-24 10:55:00
3:55 AM,34.7,34.5,99,29.83,10.0,SSE,4.6,-,N/A,,Mostly Cloudy,160,2011-11-24 11:55:00
4:55 AM,35.8,35.2,98,29.82,10.0,Calm,Calm,-,N/A,,Overcast,0,2011-11-24 12:55:00
5:55 AM,34.2,33.3,97,29.80,10.0,SSE,4.6,-,N/A,,Overcast,160,2011-11-24 13:55:00
6:55 AM,35.4,34.0,94,29.78,10.0,SSW,4.6,-,N/A,,Overcast,200,2011-11-24 14:55:00
7:55 AM,36.5,34.3,92,29.77,10.0,South,5.8,-,N/A,,Overcast,170,2011-11-24 15:55:00
8:55 AM,38.8,37.2,94,29.76,10.0,South,6.9,-,N/A,,Overcast,170,2011-11-24 16:55:00
9:55 AM,40.1,36.9,88,29.74,10.0,SE,8.1,-,N/A,,Scattered Clouds,140,2011-11-24 17:55:00
10:15 AM,42.8,35.6,76,29.71,10.0,SE,11.5,-,N/A,Rain,Light Rain,140,2011-11-24 18:15:00
10:20 AM,42.8,35.6,76,29.70,10.0,SE,15.0,20.7,N/A,Rain,Light Rain,140,2011-11-24 18:20:00
10:55 AM,43.0,37.2,80,29.68,10.0,SSE,11.5,24.2,0.01,Rain,Light Rain,150,2011-11-24 18:55:00
11:00 AM,42.8,37.4,81,29.68,10.0,SSE,13.8,-,N/A,Rain,Light Rain,150,2011-11-24 19:00:00
11:18 AM,42.8,37.4,81,29.66,10.0,SSE,11.5,-,N/A,,Overcast,160,2011-11-24 19:18:00
11:55 AM,43.7,37.8,80,29.63,10.0,SSE,12.7,-,0.00,,Overcast,160,2011-11-24 19:55:00
12:55 PM,43.5,38.3,82,29.59,10.0,SSE,11.5,18.4,0.02,Rain,Light Rain,150,2011-11-24 20:55:00
1:06 PM,42.8,39.2,87,29.59,10.0,SSE,13.8,-,N/A,Rain,Light Rain,160,2011-11-24 21:06:00
1:08 PM,42.8,39.2,87,29.59,10.0,SSE,15.0,-,N/A,,Overcast,160,2011-11-24 21:08:00
1:53 PM,44.6,39.2,81,29.60,10.0,South,10.4,-,N/A,,Overcast,180,2011-11-24 21:53:00
1:55 PM,43.9,39.7,85,29.60,10.0,South,10.4,-,0.02,,Overcast,170,2011-11-24 21:55:00
2:01 PM,44.6,39.2,81,29.60,10.0,South,9.2,-,N/A,Rain,Light Rain,180,2011-11-24 22:01:00
2:55 PM,44.1,40.3,87,29.57,10.0,South,15.0,-,0.02,Rain,Light Rain,170,2011-11-24 22:55:00
2:58 PM,44.6,41.0,87,29.57,10.0,South,16.1,-,N/A,,Overcast,170,2011-11-24 22:58:00
3:28 PM,44.6,39.2,81,29.58,10.0,South,13.8,-,N/A,Rain,Light Rain,170,2011-11-24 23:28:00
3:55 PM,45.3,39.2,79,29.62,8.0,SSW,15.0,28.8,0.01,Rain,Light Rain,210,2011-11-24 23:55:00
4:17 PM,44.6,41.0,87,29.63,6.0,South,16.1,-,N/A,,Overcast,190,2011-11-25 00:17:00
4:22 PM,42.8,41.0,93,29.63,8.0,South,16.1,-,N/A,,Overcast,190,2011-11-25 00:22:00
4:43 PM,42.8,41.0,93,29.64,10.0,South,12.7,21.9,N/A,,Overcast,190,2011-11-25 00:43:00
4:51 PM,42.8,41.0,93,29.65,10.0,SSW,11.5,21.9,N/A,Rain,Light Rain,200,2011-11-25 00:51:00
4:52 PM,42.8,41.0,93,29.65,10.0,SSW,12.7,-,N/A,,Overcast,200,2011-11-25 00:52:00
4:55 PM,43.2,40.5,90,29.65,8.0,South,15.0,21.9,0.10,,Overcast,190,2011-11-25 00:55:00
5:00 PM,42.8,41.0,93,29.66,7.0,South,16.1,21.9,N/A,,Overcast,190,2011-11-25 01:00:00
5:07 PM,42.8,41.0,93,29.66,7.0,SSW,16.1,-,N/A,,Overcast,200,2011-11-25 01:07:00
5:13 PM,42.8,41.0,93,29.66,10.0,SSW,16.1,-,N/A,Rain,Light Rain,200,2011-11-25 01:13:00
5:19 PM,42.8,39.2,87,29.66,10.0,South,17.3,28.8,N/A,Rain,Light Rain,190,2011-11-25 01:19:00
5:26 PM,42.8,39.2,87,29.67,10.0,South,12.7,28.8,N/A,Rain,Light Rain,190,2011-11-25 01:26:00
5:32 PM,42.8,41.0,93,29.67,10.0,South,11.5,-,N/A,Rain,Light Rain,170,2011-11-25 01:32:00
5:35 PM,42.8,41.0,93,29.67,10.0,South,10.4,-,N/A,Rain,Light Rain,170,2011-11-25 01:35:00
5:37 PM,42.8,41.0,93,29.67,10.0,South,11.5,-,N/A,,Overcast,170,2011-11-25 01:37:00
5:47 PM,42.8,41.0,93,29.68,10.0,South,13.8,-,N/A,Rain,Light Rain,180,2011-11-25 01:47:00
5:53 PM,42.8,41.0,93,29.70,7.0,SSW,10.4,-,N/A,Rain,Light Rain,210,2011-11-25 01:53:00
5:55 PM,42.1,40.3,93,29.70,6.0,SW,9.2,-,0.06,Rain,Light Rain,220,2011-11-25 01:55:00
6:02 PM,42.8,41.0,93,29.69,3.0,SW,8.1,-,N/A,Rain,Rain,220,2011-11-25 02:02:00
6:05 PM,42.8,41.0,93,29.69,4.0,South,5.8,-,N/A,Rain,Light Rain,190,2011-11-25 02:05:00
6:41 PM,42.8,41.0,93,29.72,4.0,SW,4.6,-,N/A,Rain,Rain,230,2011-11-25 02:41:00
6:42 PM,42.8,41.0,93,29.72,4.0,SW,4.6,-,N/A,Rain,Rain,230,2011-11-25 02:42:00
6:43 PM,42.8,41.0,93,29.72,5.0,SSW,4.6,-,N/A,Rain,Light Rain,210,2011-11-25 02:43:00
6:44 PM,42.8,41.0,93,29.72,5.0,SSW,5.8,-,N/A,Rain,Light Rain,200,2011-11-25 02:44:00
6:46 PM,42.8,41.0,93,29.72,6.0,South,6.9,-,N/A,Rain,Light Rain,190,2011-11-25 02:46:00
6:49 PM,42.8,41.0,93,29.72,8.0,South,9.2,-,N/A,Rain,Light Rain,180,2011-11-25 02:49:00
6:52 PM,42.8,41.0,93,29.71,8.0,South,10.4,-,N/A,Rain,Light Rain,170,2011-11-25 02:52:00
6:53 PM,42.8,41.0,93,29.71,8.0,South,10.4,-,N/A,Rain,Light Rain,170,2011-11-25 02:53:00
6:55 PM,42.1,41.4,97,29.71,8.0,South,11.5,-,0.09,Rain,Light Rain,170,2011-11-25 02:55:00
6:56 PM,42.8,41.0,93,29.71,8.0,South,11.5,-,N/A,Rain,Light Rain,170,2011-11-25 02:56:00
7:04 PM,42.8,41.0,93,29.71,10.0,South,9.2,-,N/A,Rain,Light Rain,180,2011-11-25 03:04:00
7:05 PM,42.8,41.0,93,29.72,10.0,South,9.2,-,N/A,,Overcast,180,2011-11-25 03:05:00
7:08 PM,42.8,41.0,93,29.72,10.0,South,10.4,-,N/A,,Mostly Cloudy,180,2011-11-25 03:08:00
7:17 PM,42.8,41.0,93,29.72,6.0,SSW,12.7,-,N/A,,Mostly Cloudy,200,2011-11-25 03:17:00
7:27 PM,42.8,41.0,93,29.73,10.0,South,11.5,-,N/A,,Mostly Cloudy,190,2011-11-25 03:27:00
7:29 PM,42.8,41.0,93,29.73,10.0,South,11.5,-,N/A,,Mostly Cloudy,180,2011-11-25 03:29:00
7:32 PM,42.8,41.0,93,29.73,10.0,South,10.4,-,N/A,,Mostly Cloudy,180,2011-11-25 03:32:00
7:40 PM,41.0,41.0,100,29.73,10.0,South,10.4,-,N/A,,Mostly Cloudy,170,2011-11-25 03:40:00
7:55 PM,42.1,41.4,97,29.74,10.0,South,10.4,-,0.02,,Mostly Cloudy,170,2011-11-25 03:55:00
8:20 PM,42.8,41.0,93,29.76,10.0,South,8.1,-,N/A,,Overcast,180,2011-11-25 04:20:00
8:25 PM,42.8,41.0,93,29.77,10.0,South,9.2,-,N/A,,Overcast,180,2011-11-25 04:25:00
8:47 PM,42.8,41.0,93,29.79,10.0,South,8.1,-,N/A,Rain,Light Rain,190,2011-11-25 04:47:00
8:55 PM,42.8,41.2,94,29.79,10.0,South,8.1,-,0.01,Rain,Light Rain,180,2011-11-25 04:55:00
9:32 PM,42.8,39.2,87,29.83,9.0,SW,9.2,19.6,N/A,Rain,Light Rain,220,2011-11-25 05:32:00
9:35 PM,42.8,39.2,87,29.83,8.0,SW,9.2,19.6,N/A,Rain,Light Rain,230,2011-11-25 05:35:00
9:47 PM,42.8,39.2,87,29.84,8.0,SSW,9.2,-,N/A,,Overcast,210,2011-11-25 05:47:00
9:55 PM,41.7,39.9,93,29.85,6.0,WSW,15.0,18.4,0.05,Rain,Rain,240,2011-11-25 05:55:00
9:56 PM,41.0,39.2,93,29.85,6.0,WSW,16.1,26.5,N/A,Rain,Rain,240,2011-11-25 05:56:00
9:58 PM,41.0,39.2,93,29.85,5.0,WSW,19.6,26.5,N/A,Rain,Rain,250,2011-11-25 05:58:00
10:01 PM,41.0,39.2,93,29.85,5.0,West,13.8,26.5,N/A,Rain,Rain,260,2011-11-25 06:01:00
10:02 PM,41.0,39.2,93,29.86,5.0,West,11.5,26.5,N/A,Rain,Rain,270,2011-11-25 06:02:00
10:04 PM,41.0,39.2,93,29.85,4.0,West,8.1,26.5,N/A,Rain,Rain,260,2011-11-25 06:04:00
10:05 PM,41.0,39.2,93,29.85,4.0,WSW,8.1,26.5,N/A,Rain,Rain,250,2011-11-25 06:05:00
10:12 PM,41.0,37.4,87,29.85,5.0,SSW,11.5,21.9,N/A,Rain,Light Rain,210,2011-11-25 06:12:00
10:21 PM,41.0,39.2,93,29.86,10.0,SSW,9.2,-,N/A,,Overcast,200,2011-11-25 06:21:00
10:22 PM,41.0,39.2,93,29.86,10.0,SSW,9.2,-,N/A,,Overcast,200,2011-11-25 06:22:00
10:41 PM,41.0,39.2,93,29.88,10.0,SSW,10.4,-,N/A,Rain,Light Rain,200,2011-11-25 06:41:00
10:51 PM,41.0,39.2,93,29.88,10.0,SW,16.1,26.5,N/A,,Partly Cloudy,220,2011-11-25 06:51:00
10:55 PM,41.4,38.1,88,29.88,10.0,SW,15.0,26.5,0.04,,Partly Cloudy,220,2011-11-25 06:55:00
11:55 PM,40.8,36.1,83,29.92,10.0,SW,18.4,23.0,N/A,,Clear,220,2011-11-25 07:55:00